Location: Coffee Ditch
(40.9640°N, 122.7500°W)
Time: 07:31:28
(UTC+00:00)

Cosmos 1484 Rocket - Pass Details

Date: 08 September 2024
Orbit: 474 x 511 km, 97.6° (Epoch: 05 October)

Event Time Altitude Azimuth Distance (km) Brightness Sun altitude
Rises 13:09:43 0° 6° (N) 2,611 6.5 -7.4°
Reaches altitude 10° 13:11:51 10° 0° (N) 1,729 5.5 -7.0°
Maximum altitude 13:15:26 48° 286° (WNW) 679 2.9 -6.4°
Drops below altitude 10° 13:19:03 10° 212° (SSW) 1,735 5.0 -5.7°
Sets 13:21:11 0° 206° (SSW) 2,621 5.9 -5.3°
